Location: Bosmont
(49.7318°N, 3.8587°E)
Time: 17:49:35
(UTC+00:00)

Lacrosse 4 Rocket - Visible Passes

Search period start: 01 October 2023 00:00
Search period end: 11 October 2023 00:00
Orbit: 529 x 606 km, 68.0° (Epoch: 01 October)

Date Brightness Start Highest point End Pass type
(mag) Time Alt. Az. Time Alt. Az. Time Alt. Az.
01 Oct 3.7 02:29:49 20° N 02:29:49 20° N 02:31:33 10° NNE visible
02 Oct 3.8 02:30:56 17° N 02:30:56 17° N 02:32:28 10° NNE visible
03 Oct 4.0 02:32:02 15° N 02:32:02 15° N 02:33:20 10° N visible
04 Oct 4.1 02:33:06 13° N 02:33:06 13° N 02:34:09 10° N visible
05 Oct 4.2 02:34:10 12° N 02:34:10 12° N 02:34:53 10° N visible
06 Oct 4.3 02:35:12 10° N 02:35:12 10° N 02:35:29 10° N visible
